Weather in Sitovo

Russia / Tula Oblast     53°20′26″N   37°49′20″E
temp.,
°C
wind,
m/s
gust,
m/s
humid.,
%
clouds,
%
prec.,
mm/h
press.,
hPa
HPBL,
m
14 may, fri
fri1400:00+9se34955 0.0 101764
03:00+9ese3395100 0.0 101745
06:00+10e349561 0.0 1016104
09:00+16ese4681100 0.0 1015387
12:00+20se6871100 0.0 10141042
15:00+21sse91571100 1.3 10121663
18:00+19sse61572100 0.5 1011769
21:00+15sse4128754 0.5 1011256
15 may, sat
sat1500:00+15sse389497 1.2 1010170
03:00+14se3496100 5.8 101088
06:00+15sse239692 0.1 101088
09:00+18ssw4780100 0.1 1010473
12:00+21ssw68636 0.0 10101159
15:00+21ssw795718 0.0 10111699
18:00+19ssw596962 0.3 1011854
21:00+15ssw388419 0.3 1012154
16 may, sun
sun1600:00+13ssw49915 0.0 1013207
03:00+12ssw35935 0.0 101390
06:00+13ssw359038 0.0 1014136
09:00+15ssw34797 0.0 1015263
12:00+20s34615 0.0 10151056
15:00+22sw465253 0.1 10141956
18:00+20n0066100 0.0 101313
21:00+17ne2273100 0.0 101411
17 may, mon
mon1700:00+16ne347497 0.0 101369
03:00+14ene368859 0.0 101396
06:00+15ene4109359 0.0 1012219
09:00+20ese697240 0.0 1011418
12:00+24se6956100 0.0 1010747
15:00+26se611565 0.0 10091544
18:00+23ese71366100 0.0 1008586
21:00+20se6167239 0.0 1009483
18 may, tue
tue1800:00+17se513795 0.0 1008306
03:00+15se368989 0.0 1008107
06:00+16sse249068 1.2 1008132
09:00+20ese3473100 1.8 1008463
12:00+20s4675100 0.1 1008863
15:00+17wsw258644 2.4 1010336
18:00+18sw368684 0.7 1010277
21:00+15w34940 0.8 101177